Year,Month,Day,Hour,Minute,Value (Times are PST for temperature in C)
2020,05,11,00,00,17.30
2020,05,11,00,01,17.30
2020,05,11,00,02,17.30
2020,05,11,00,03,17.30
2020,05,11,00,04,17.20
2020,05,11,00,05,17.20
2020,05,11,00,06,17.20
2020,05,11,00,07,17.10
2020,05,11,00,08,17.10
2020,05,11,00,09,17.10
2020,05,11,00,10,17.10
2020,05,11,00,11,17.10
2020,05,11,00,12,17.10
2020,05,11,00,13,17.10
2020,05,11,00,14,17.10
2020,05,11,00,15,17.10
2020,05,11,00,16,17.00
2020,05,11,00,17,16.90
2020,05,11,00,18,16.80
2020,05,11,00,19,16.70
2020,05,11,00,20,16.70
2020,05,11,00,21,16.60
2020,05,11,00,22,16.60
2020,05,11,00,23,16.50
2020,05,11,00,24,16.50
2020,05,11,00,25,16.40
2020,05,11,00,26,16.40
2020,05,11,00,27,16.30
2020,05,11,00,28,16.30
2020,05,11,00,29,16.30
2020,05,11,00,30,16.30
2020,05,11,00,31,16.30
2020,05,11,00,32,16.30
2020,05,11,00,33,16.30
2020,05,11,00,34,16.30
2020,05,11,00,35,16.30
2020,05,11,00,36,16.20
2020,05,11,00,37,16.20
2020,05,11,00,38,16.20
2020,05,11,00,39,16.10
2020,05,11,00,40,16.10
2020,05,11,00,41,16.00
2020,05,11,00,42,16.00
2020,05,11,00,43,15.90
2020,05,11,00,44,15.90
2020,05,11,00,45,15.80
2020,05,11,00,46,15.70
2020,05,11,00,47,15.70
2020,05,11,00,48,15.60
2020,05,11,00,49,15.60
2020,05,11,00,50,15.60
2020,05,11,00,51,15.60
2020,05,11,00,52,15.50
2020,05,11,00,53,15.50
2020,05,11,00,54,15.40
2020,05,11,00,55,15.40
2020,05,11,00,56,15.30
2020,05,11,00,57,15.30
2020,05,11,00,58,15.30
2020,05,11,00,59,15.30
2020,05,11,01,00,15.30
2020,05,11,01,01,15.20
2020,05,11,01,02,15.20
2020,05,11,01,03,15.20
2020,05,11,01,04,15.20
2020,05,11,01,05,15.20
2020,05,11,01,06,15.10
2020,05,11,01,07,15.10
2020,05,11,01,08,15.10
2020,05,11,01,09,15.10
2020,05,11,01,10,15.10
2020,05,11,01,11,15.10
2020,05,11,01,12,15.10
2020,05,11,01,13,15.10
2020,05,11,01,14,15.10
2020,05,11,01,15,15.10
2020,05,11,01,16,15.10
2020,05,11,01,17,15.10
2020,05,11,01,18,15.10
2020,05,11,01,19,15.10
2020,05,11,01,20,15.10
2020,05,11,01,21,15.10
2020,05,11,01,22,15.10
2020,05,11,01,23,15.10
2020,05,11,01,24,15.20
2020,05,11,01,25,15.20
2020,05,11,01,26,15.20
2020,05,11,01,27,15.20
2020,05,11,01,28,15.20
2020,05,11,01,29,15.20
2020,05,11,01,30,15.20
2020,05,11,01,31,15.20
2020,05,11,01,32,15.20
2020,05,11,01,33,15.20
2020,05,11,01,34,15.20
2020,05,11,01,35,15.20
2020,05,11,01,36,15.20
2020,05,11,01,37,15.20
2020,05,11,01,38,15.20
2020,05,11,01,39,15.20
2020,05,11,01,40,15.20
2020,05,11,01,41,15.20
2020,05,11,01,42,15.20
2020,05,11,01,43,15.20
2020,05,11,01,44,15.30
2020,05,11,01,45,15.30
2020,05,11,01,46,15.30
2020,05,11,01,47,15.30
2020,05,11,01,48,15.20
2020,05,11,01,49,15.20
2020,05,11,01,50,15.20
2020,05,11,01,51,15.20
2020,05,11,01,52,15.10
2020,05,11,01,53,15.10
2020,05,11,01,54,15.10
2020,05,11,01,55,15.00
2020,05,11,01,56,15.00
2020,05,11,01,57,14.90
2020,05,11,01,58,14.90
2020,05,11,01,59,14.90
2020,05,11,02,00,14.80
2020,05,11,02,01,14.80
2020,05,11,02,02,14.70
2020,05,11,02,03,14.70
2020,05,11,02,04,14.70
2020,05,11,02,05,14.60
2020,05,11,02,06,14.60
2020,05,11,02,07,14.60
2020,05,11,02,08,14.60
2020,05,11,02,09,14.70
2020,05,11,02,10,14.70
2020,05,11,02,11,14.80
2020,05,11,02,12,14.80
2020,05,11,02,13,14.80
2020,05,11,02,14,14.80
2020,05,11,02,15,14.80
2020,05,11,02,16,14.80
2020,05,11,02,17,14.80
2020,05,11,02,18,14.80
2020,05,11,02,19,14.80
2020,05,11,02,20,14.70
2020,05,11,02,21,14.70
2020,05,11,02,22,14.70
2020,05,11,02,23,14.70
2020,05,11,02,24,14.70
2020,05,11,02,25,14.60
2020,05,11,02,26,14.60
2020,05,11,02,27,14.60
2020,05,11,02,28,14.60
2020,05,11,02,29,14.60
2020,05,11,02,30,14.50
2020,05,11,02,31,14.50
2020,05,11,02,32,14.50
2020,05,11,02,33,14.40
2020,05,11,02,34,14.40
2020,05,11,02,35,14.40
2020,05,11,02,36,14.40
2020,05,11,02,37,14.40
2020,05,11,02,38,14.40
2020,05,11,02,39,14.40
2020,05,11,02,40,14.40
2020,05,11,02,41,14.40
2020,05,11,02,42,14.40
2020,05,11,02,43,14.40
2020,05,11,02,44,14.40
2020,05,11,02,45,14.40
2020,05,11,02,46,14.50
2020,05,11,02,47,14.50
2020,05,11,02,48,14.50
2020,05,11,02,49,14.50
2020,05,11,02,50,14.60
2020,05,11,02,51,14.60
2020,05,11,02,52,14.60
2020,05,11,02,53,14.60
2020,05,11,02,54,14.60
2020,05,11,02,55,14.60
2020,05,11,02,56,14.60
2020,05,11,02,57,14.60
2020,05,11,02,58,14.60
2020,05,11,02,59,14.60
2020,05,11,03,00,14.50
2020,05,11,03,01,14.50
2020,05,11,03,02,14.50
2020,05,11,03,03,14.50
2020,05,11,03,04,14.50
2020,05,11,03,05,14.50
2020,05,11,03,06,14.50
2020,05,11,03,07,14.60
2020,05,11,03,08,14.60
2020,05,11,03,09,14.60
2020,05,11,03,10,14.50
2020,05,11,03,11,14.50
2020,05,11,03,12,14.60
2020,05,11,03,13,14.60
2020,05,11,03,14,14.60
2020,05,11,03,15,14.60
2020,05,11,03,16,14.60
2020,05,11,03,17,14.50
2020,05,11,03,18,14.50
2020,05,11,03,19,14.50
2020,05,11,03,20,14.50
2020,05,11,03,21,14.50
2020,05,11,03,22,14.40
2020,05,11,03,23,14.40
2020,05,11,03,24,14.40
2020,05,11,03,25,14.40
2020,05,11,03,26,14.30
2020,05,11,03,27,14.30
2020,05,11,03,28,14.20
2020,05,11,03,29,14.20
2020,05,11,03,30,14.20
2020,05,11,03,31,14.10
2020,05,11,03,32,14.10
2020,05,11,03,33,14.10
2020,05,11,03,34,14.10
2020,05,11,03,35,14.10
2020,05,11,03,36,14.00
2020,05,11,03,37,14.00
2020,05,11,03,38,14.00
2020,05,11,03,39,14.00
2020,05,11,03,40,14.00
2020,05,11,03,41,14.10
2020,05,11,03,42,14.10
2020,05,11,03,43,14.10
2020,05,11,03,44,14.20
2020,05,11,03,45,14.20
2020,05,11,03,46,14.20
2020,05,11,03,47,14.20
2020,05,11,03,48,14.20
2020,05,11,03,49,14.20
2020,05,11,03,50,14.20
2020,05,11,03,51,14.20
2020,05,11,03,52,14.20
2020,05,11,03,53,14.20
2020,05,11,03,54,14.20
2020,05,11,03,55,14.20
2020,05,11,03,56,14.20
2020,05,11,03,57,14.20
2020,05,11,03,58,14.10
2020,05,11,03,59,14.20
2020,05,11,04,00,14.10
2020,05,11,04,01,14.10
2020,05,11,04,02,14.10
2020,05,11,04,03,14.10
2020,05,11,04,04,14.10
2020,05,11,04,05,14.10
2020,05,11,04,06,14.00
2020,05,11,04,07,14.00
2020,05,11,04,08,14.00
2020,05,11,04,09,13.90
2020,05,11,04,10,13.90
2020,05,11,04,11,13.90
2020,05,11,04,12,13.90
2020,05,11,04,13,13.90
2020,05,11,04,14,13.90
2020,05,11,04,15,13.80
2020,05,11,04,16,13.80
2020,05,11,04,17,13.80
2020,05,11,04,18,13.80
2020,05,11,04,19,13.80
2020,05,11,04,20,13.80
2020,05,11,04,21,13.80
2020,05,11,04,22,13.70
2020,05,11,04,23,13.70
2020,05,11,04,24,13.70
2020,05,11,04,25,13.70
2020,05,11,04,26,13.70
2020,05,11,04,27,13.70
2020,05,11,04,28,13.60
2020,05,11,04,29,13.60
2020,05,11,04,30,13.60
2020,05,11,04,31,13.60
2020,05,11,04,32,13.60
2020,05,11,04,33,13.60
2020,05,11,04,34,13.60
2020,05,11,04,35,13.60
2020,05,11,04,36,13.60
2020,05,11,04,37,13.60
2020,05,11,04,38,13.60
2020,05,11,04,39,13.60
2020,05,11,04,40,13.70
2020,05,11,04,41,13.70
2020,05,11,04,42,13.70
2020,05,11,04,43,13.70
2020,05,11,04,44,13.70
2020,05,11,04,45,13.80
2020,05,11,04,46,13.80
2020,05,11,04,47,13.80
2020,05,11,04,48,13.80
2020,05,11,04,49,13.80
2020,05,11,04,50,13.90
2020,05,11,04,51,13.90
2020,05,11,04,52,13.90
2020,05,11,04,53,13.90
2020,05,11,04,54,13.80
2020,05,11,04,55,13.80
2020,05,11,04,56,13.80
2020,05,11,04,57,13.80
2020,05,11,04,58,13.80
2020,05,11,04,59,13.80
2020,05,11,05,00,13.80
2020,05,11,05,01,13.80
2020,05,11,05,02,13.80
2020,05,11,05,03,13.80
2020,05,11,05,04,13.70
2020,05,11,05,05,13.70
2020,05,11,05,06,13.70
2020,05,11,05,07,13.70
2020,05,11,05,08,13.70
2020,05,11,05,09,13.60
2020,05,11,05,10,13.60
2020,05,11,05,11,13.60
2020,05,11,05,12,13.60
2020,05,11,05,13,13.70
2020,05,11,05,14,13.70
2020,05,11,05,15,13.70
2020,05,11,05,16,13.70
2020,05,11,05,17,13.70
2020,05,11,05,18,13.70
2020,05,11,05,19,13.70
2020,05,11,05,20,13.60
2020,05,11,05,21,13.60
2020,05,11,05,22,13.60
2020,05,11,05,23,13.60
2020,05,11,05,24,13.60
2020,05,11,05,25,13.50
2020,05,11,05,26,13.50
2020,05,11,05,27,13.40
2020,05,11,05,28,13.40
2020,05,11,05,29,13.40
2020,05,11,05,30,13.30
2020,05,11,05,31,13.30
2020,05,11,05,32,13.30
2020,05,11,05,33,13.30
2020,05,11,05,34,13.20
2020,05,11,05,35,13.20
2020,05,11,05,36,13.20
2020,05,11,05,37,13.20
2020,05,11,05,38,13.20
2020,05,11,05,39,13.20
2020,05,11,05,40,13.20
2020,05,11,05,41,13.20
2020,05,11,05,42,13.20
2020,05,11,05,43,13.20
2020,05,11,05,44,13.20
2020,05,11,05,45,13.10
2020,05,11,05,46,13.10
2020,05,11,05,47,13.10
2020,05,11,05,48,13.10
2020,05,11,05,49,13.10
2020,05,11,05,50,13.10
2020,05,11,05,51,13.10
2020,05,11,05,52,13.10
2020,05,11,05,53,13.00
2020,05,11,05,54,13.00
2020,05,11,05,55,13.00
2020,05,11,05,56,13.00
2020,05,11,05,57,12.90
2020,05,11,05,58,12.90
2020,05,11,05,59,12.90
2020,05,11,06,00,12.90
2020,05,11,06,01,12.90
2020,05,11,06,02,12.90
2020,05,11,06,03,12.90
2020,05,11,06,04,12.90
2020,05,11,06,05,13.00
2020,05,11,06,06,13.00
2020,05,11,06,07,13.10
2020,05,11,06,08,13.10
2020,05,11,06,09,13.20
2020,05,11,06,10,13.20
2020,05,11,06,11,13.20
2020,05,11,06,12,13.30
2020,05,11,06,13,13.30
2020,05,11,06,14,13.40
2020,05,11,06,15,13.50
2020,05,11,06,16,13.60
2020,05,11,06,17,13.70
2020,05,11,06,18,13.70
2020,05,11,06,19,13.80
2020,05,11,06,20,13.80
2020,05,11,06,21,13.90
2020,05,11,06,22,13.90
2020,05,11,06,23,13.90
2020,05,11,06,24,13.90
2020,05,11,06,25,13.90
2020,05,11,06,26,14.00
2020,05,11,06,27,13.90
2020,05,11,06,28,13.90
2020,05,11,06,29,13.90
2020,05,11,06,30,13.90
2020,05,11,06,31,13.90
2020,05,11,06,32,13.90
2020,05,11,06,33,13.90
2020,05,11,06,34,13.90
2020,05,11,06,35,13.90
2020,05,11,06,36,13.90
2020,05,11,06,37,13.80
2020,05,11,06,38,13.80
2020,05,11,06,39,13.80
2020,05,11,06,40,13.80
2020,05,11,06,41,13.80
2020,05,11,06,42,13.80
2020,05,11,06,43,13.80
2020,05,11,06,44,13.80
2020,05,11,06,45,13.80
2020,05,11,06,46,13.80
2020,05,11,06,47,13.80
2020,05,11,06,48,13.80
2020,05,11,06,49,13.80
2020,05,11,06,50,13.80
2020,05,11,06,51,13.80
2020,05,11,06,52,13.80
2020,05,11,06,53,13.80
2020,05,11,06,54,13.90
2020,05,11,06,55,13.90
2020,05,11,06,56,13.90
2020,05,11,06,57,13.90
2020,05,11,06,58,13.90
2020,05,11,06,59,14.00
2020,05,11,07,00,14.00
2020,05,11,07,01,14.10
2020,05,11,07,02,14.10
2020,05,11,07,03,14.10
2020,05,11,07,04,14.10
2020,05,11,07,05,14.10
2020,05,11,07,06,14.20
2020,05,11,07,07,14.20
2020,05,11,07,08,14.20
2020,05,11,07,09,14.20
2020,05,11,07,10,14.30
2020,05,11,07,11,14.30
2020,05,11,07,12,14.30
2020,05,11,07,13,14.30
2020,05,11,07,14,14.40
2020,05,11,07,15,14.40
2020,05,11,07,16,14.40
2020,05,11,07,17,14.50
2020,05,11,07,18,14.50
2020,05,11,07,19,14.60
2020,05,11,07,20,14.60
2020,05,11,07,21,14.60
2020,05,11,07,22,14.70
2020,05,11,07,23,14.70
2020,05,11,07,24,14.80
2020,05,11,07,25,14.80
2020,05,11,07,26,14.80
2020,05,11,07,27,14.90
2020,05,11,07,28,14.90
2020,05,11,07,29,14.90
2020,05,11,07,30,14.90
2020,05,11,07,31,14.90
2020,05,11,07,32,14.90
2020,05,11,07,33,15.00
2020,05,11,07,34,15.00
2020,05,11,07,35,15.00
2020,05,11,07,36,15.00
2020,05,11,07,37,15.10
2020,05,11,07,38,15.10
2020,05,11,07,39,15.10
2020,05,11,07,40,15.10
2020,05,11,07,41,15.10
2020,05,11,07,42,15.10
2020,05,11,07,43,15.20
2020,05,11,07,44,15.20
2020,05,11,07,45,15.20
2020,05,11,07,46,15.30
2020,05,11,07,47,15.30
2020,05,11,07,48,15.40
2020,05,11,07,49,15.50
2020,05,11,07,50,15.60
2020,05,11,07,51,15.70
2020,05,11,07,52,15.80
2020,05,11,07,53,15.90
2020,05,11,07,54,16.00
2020,05,11,07,55,16.10
2020,05,11,07,56,16.20
2020,05,11,07,57,16.30
2020,05,11,07,58,16.50
2020,05,11,07,59,16.70
2020,05,11,08,00,16.80
2020,05,11,08,01,17.00
2020,05,11,08,02,17.20
2020,05,11,08,03,17.30
2020,05,11,08,04,17.50
2020,05,11,08,05,17.70
2020,05,11,08,06,17.80
2020,05,11,08,07,17.90
2020,05,11,08,08,18.10
2020,05,11,08,09,18.20
2020,05,11,08,10,18.30
2020,05,11,08,11,18.40
2020,05,11,08,12,18.50
2020,05,11,08,13,18.60
2020,05,11,08,14,18.70
2020,05,11,08,15,18.70
2020,05,11,08,16,18.80
2020,05,11,08,17,18.80
2020,05,11,08,18,18.90
2020,05,11,08,19,18.90
2020,05,11,08,20,19.00
2020,05,11,08,21,19.00
2020,05,11,08,22,19.10
2020,05,11,08,23,19.20
2020,05,11,08,24,19.20
2020,05,11,08,25,19.20
2020,05,11,08,26,19.30
2020,05,11,08,27,19.30
2020,05,11,08,28,19.30
2020,05,11,08,29,19.40
2020,05,11,08,30,19.40
2020,05,11,08,31,19.50
2020,05,11,08,32,19.50
2020,05,11,08,33,19.60
2020,05,11,08,34,19.60
2020,05,11,08,35,19.70
2020,05,11,08,36,19.70
2020,05,11,08,37,19.70
2020,05,11,08,38,19.70
2020,05,11,08,39,19.70
2020,05,11,08,40,19.70
2020,05,11,08,41,19.70
2020,05,11,08,42,19.70
2020,05,11,08,43,19.70
2020,05,11,08,44,19.60
2020,05,11,08,45,19.60
2020,05,11,08,46,19.70
2020,05,11,08,47,19.70
2020,05,11,08,48,19.70
2020,05,11,08,49,19.70
2020,05,11,08,50,19.70
2020,05,11,08,51,19.70
2020,05,11,08,52,19.70
2020,05,11,08,53,19.70
2020,05,11,08,54,19.70
2020,05,11,08,55,19.70
2020,05,11,08,56,19.70
2020,05,11,08,57,19.70
2020,05,11,08,58,19.70
2020,05,11,08,59,19.80
2020,05,11,09,00,19.80
2020,05,11,09,01,19.90
2020,05,11,09,02,20.00
2020,05,11,09,03,20.00
2020,05,11,09,04,20.10
2020,05,11,09,05,20.10
2020,05,11,09,06,20.00
2020,05,11,09,07,20.00
2020,05,11,09,08,20.00
2020,05,11,09,09,20.00
2020,05,11,09,10,20.00
2020,05,11,09,11,19.90
2020,05,11,09,12,19.90
2020,05,11,09,13,19.90
2020,05,11,09,14,19.80
2020,05,11,09,15,19.80
2020,05,11,09,16,19.80
2020,05,11,09,17,19.80
2020,05,11,09,18,19.80
2020,05,11,09,19,19.80
2020,05,11,09,20,19.80
2020,05,11,09,21,19.80
2020,05,11,09,22,19.80
2020,05,11,09,23,19.80
2020,05,11,09,24,19.90
2020,05,11,09,25,19.90
2020,05,11,09,26,19.90
2020,05,11,09,27,19.90
2020,05,11,09,28,19.90
2020,05,11,09,29,20.00
2020,05,11,09,30,20.10
2020,05,11,09,31,20.10
2020,05,11,09,32,20.20
2020,05,11,09,33,20.20
2020,05,11,09,34,20.20
2020,05,11,09,35,20.20
2020,05,11,09,36,20.20
2020,05,11,09,37,20.20
2020,05,11,09,38,20.20
2020,05,11,09,39,20.20
2020,05,11,09,40,20.20
2020,05,11,09,41,20.10
2020,05,11,09,42,20.10
2020,05,11,09,43,20.00
2020,05,11,09,44,19.90
2020,05,11,09,45,19.90
2020,05,11,09,46,19.80
2020,05,11,09,47,19.70
2020,05,11,09,48,19.70
2020,05,11,09,49,19.60
2020,05,11,09,50,19.60
2020,05,11,09,51,19.60
2020,05,11,09,52,19.50
2020,05,11,09,53,19.50
2020,05,11,09,54,19.50
2020,05,11,09,55,19.40
2020,05,11,09,56,19.30
2020,05,11,09,57,19.30
2020,05,11,09,58,19.30
2020,05,11,09,59,19.20
2020,05,11,10,00,19.20
2020,05,11,10,01,19.10
2020,05,11,10,02,19.10
2020,05,11,10,03,19.10
2020,05,11,10,04,19.10
2020,05,11,10,05,19.10
2020,05,11,10,06,19.10
2020,05,11,10,07,19.10
2020,05,11,10,08,19.10
2020,05,11,10,09,19.10
2020,05,11,10,10,19.00
2020,05,11,10,11,19.00
2020,05,11,10,12,18.90
2020,05,11,10,13,18.80
2020,05,11,10,14,18.70
2020,05,11,10,15,18.70
2020,05,11,10,16,18.70
2020,05,11,10,17,18.70
2020,05,11,10,18,18.70
2020,05,11,10,19,18.70
2020,05,11,10,20,18.70
2020,05,11,10,21,18.70
2020,05,11,10,22,18.70
2020,05,11,10,23,18.70
2020,05,11,10,24,18.70
2020,05,11,10,25,18.70
2020,05,11,10,26,18.80
2020,05,11,10,27,18.90
2020,05,11,10,28,19.00
2020,05,11,10,29,19.10
2020,05,11,10,30,19.20
2020,05,11,10,31,19.30
2020,05,11,10,32,19.40
2020,05,11,10,33,19.60
2020,05,11,10,34,19.70
2020,05,11,10,35,19.80
2020,05,11,10,36,19.90
2020,05,11,10,37,20.00
2020,05,11,10,38,20.10
2020,05,11,10,39,20.20
2020,05,11,10,40,20.30
2020,05,11,10,41,20.40
2020,05,11,10,42,20.60
2020,05,11,10,43,20.70
2020,05,11,10,44,20.80
2020,05,11,10,45,20.80
2020,05,11,10,46,20.80
2020,05,11,10,47,20.90
2020,05,11,10,48,21.00
2020,05,11,10,49,21.00
2020,05,11,10,50,21.10
2020,05,11,10,51,21.10
2020,05,11,10,52,21.10
2020,05,11,10,53,21.20
2020,05,11,10,54,21.40
2020,05,11,10,55,21.50
2020,05,11,10,56,21.50
2020,05,11,10,57,21.60
2020,05,11,10,58,21.60
2020,05,11,10,59,21.60
2020,05,11,11,00,21.60
2020,05,11,11,01,21.70
2020,05,11,11,02,21.70
2020,05,11,11,03,21.80
2020,05,11,11,04,21.80
2020,05,11,11,05,21.80
2020,05,11,11,06,21.80
2020,05,11,11,07,21.80
2020,05,11,11,08,21.80
2020,05,11,11,09,21.80
2020,05,11,11,10,21.70
2020,05,11,11,11,21.80
2020,05,11,11,12,21.80
2020,05,11,11,13,21.90
2020,05,11,11,14,21.90
2020,05,11,11,15,21.90
2020,05,11,11,16,21.90
2020,05,11,11,17,21.90
2020,05,11,11,18,21.90
2020,05,11,11,19,21.90
2020,05,11,11,20,21.90
2020,05,11,11,21,21.80
2020,05,11,11,22,21.80
2020,05,11,11,23,21.80
2020,05,11,11,24,21.90
2020,05,11,11,25,21.90
2020,05,11,11,26,21.90
2020,05,11,11,27,21.90
2020,05,11,11,28,22.00
2020,05,11,11,29,22.00
2020,05,11,11,30,22.00
2020,05,11,11,31,22.10
2020,05,11,11,32,22.10
2020,05,11,11,33,22.10
2020,05,11,11,34,22.20
2020,05,11,11,35,22.20
2020,05,11,11,36,22.20
2020,05,11,11,37,22.20
2020,05,11,11,38,22.20
2020,05,11,11,39,22.20
2020,05,11,11,40,22.20
2020,05,11,11,41,22.20
2020,05,11,11,42,22.10
2020,05,11,11,43,22.10
2020,05,11,11,44,22.10
2020,05,11,11,45,22.00
2020,05,11,11,46,22.00
2020,05,11,11,47,22.00
2020,05,11,11,48,22.00
2020,05,11,11,49,21.90
2020,05,11,11,50,21.90
2020,05,11,11,51,21.90
2020,05,11,11,52,21.90
2020,05,11,11,53,21.80
2020,05,11,11,54,21.80
2020,05,11,11,55,21.80
2020,05,11,11,56,21.70
2020,05,11,11,57,21.70
2020,05,11,11,58,21.70
2020,05,11,11,59,21.70
2020,05,11,12,00,21.70
2020,05,11,12,01,21.70
2020,05,11,12,02,21.70
2020,05,11,12,03,21.70
2020,05,11,12,04,21.70
2020,05,11,12,05,21.80
2020,05,11,12,06,21.80
2020,05,11,12,07,21.80
2020,05,11,12,08,21.80
2020,05,11,12,09,21.90
2020,05,11,12,10,21.90
2020,05,11,12,11,21.90
2020,05,11,12,12,21.90
2020,05,11,12,13,21.90
2020,05,11,12,14,21.90
2020,05,11,12,15,21.80
2020,05,11,12,16,21.80
2020,05,11,12,17,21.80
2020,05,11,12,18,21.80
2020,05,11,12,19,21.70
2020,05,11,12,20,21.70
2020,05,11,12,21,21.60
2020,05,11,12,22,21.60
2020,05,11,12,23,21.60
2020,05,11,12,24,21.50
2020,05,11,12,25,21.50
2020,05,11,12,26,21.40
2020,05,11,12,27,21.40
2020,05,11,12,28,21.40
2020,05,11,12,29,21.30
2020,05,11,12,30,21.30
2020,05,11,12,31,21.30
2020,05,11,12,32,21.30
2020,05,11,12,33,21.30
2020,05,11,12,34,21.30
2020,05,11,12,35,21.30
2020,05,11,12,36,21.30
2020,05,11,12,37,21.30
2020,05,11,12,38,21.30
2020,05,11,12,39,21.30
2020,05,11,12,40,21.20
2020,05,11,12,41,21.20
2020,05,11,12,42,21.10
2020,05,11,12,43,21.00
2020,05,11,12,44,20.90
2020,05,11,12,45,20.80
2020,05,11,12,46,20.70
2020,05,11,12,47,20.60
2020,05,11,12,48,20.60
2020,05,11,12,49,20.50
2020,05,11,12,50,20.50
2020,05,11,12,51,20.50
2020,05,11,12,52,20.50
2020,05,11,12,53,20.50
2020,05,11,12,54,20.50
2020,05,11,12,55,20.50
2020,05,11,12,56,20.60
2020,05,11,12,57,20.50
2020,05,11,12,58,20.60
2020,05,11,12,59,20.60
2020,05,11,13,00,20.60
2020,05,11,13,01,20.60
2020,05,11,13,02,20.60
2020,05,11,13,03,20.60
2020,05,11,13,04,20.60
2020,05,11,13,05,20.60
2020,05,11,13,06,20.60
2020,05,11,13,07,20.60
2020,05,11,13,08,20.60
2020,05,11,13,09,20.50
2020,05,11,13,10,20.50
2020,05,11,13,11,20.40
2020,05,11,13,12,20.30
2020,05,11,13,13,20.30
2020,05,11,13,14,20.20
2020,05,11,13,15,20.20
2020,05,11,13,16,20.10
2020,05,11,13,17,20.10
2020,05,11,13,18,20.00
2020,05,11,13,19,20.00
2020,05,11,13,20,20.00
2020,05,11,13,21,20.00
2020,05,11,13,22,19.90
2020,05,11,13,23,19.90
2020,05,11,13,24,19.90
2020,05,11,13,25,19.80
2020,05,11,13,26,19.70
2020,05,11,13,27,19.50
2020,05,11,13,28,19.40
2020,05,11,13,29,19.30
2020,05,11,13,30,19.20
2020,05,11,13,31,19.20
2020,05,11,13,32,19.10
2020,05,11,13,33,19.10
2020,05,11,13,34,19.10
2020,05,11,13,35,19.10
2020,05,11,13,36,19.10
2020,05,11,13,37,19.10
2020,05,11,13,38,19.10
2020,05,11,13,39,19.10
2020,05,11,13,40,19.10
2020,05,11,13,41,19.10
2020,05,11,13,42,19.10
2020,05,11,13,43,19.00
2020,05,11,13,44,19.00
2020,05,11,13,45,19.10
2020,05,11,13,46,19.00
2020,05,11,13,47,19.00
2020,05,11,13,48,19.10
2020,05,11,13,49,19.10
2020,05,11,13,50,19.10
2020,05,11,13,51,19.10
2020,05,11,13,52,19.10
2020,05,11,13,53,19.20
2020,05,11,13,54,19.20
2020,05,11,13,55,19.30
2020,05,11,13,56,19.30
2020,05,11,13,57,19.30
2020,05,11,13,58,19.40
2020,05,11,13,59,19.40
2020,05,11,14,00,19.40
2020,05,11,14,01,19.40
2020,05,11,14,02,19.50
2020,05,11,14,03,19.50
2020,05,11,14,04,19.60
2020,05,11,14,05,19.60
2020,05,11,14,06,19.70
2020,05,11,14,07,19.70
2020,05,11,14,08,19.80
2020,05,11,14,09,19.80
2020,05,11,14,10,19.80
2020,05,11,14,11,19.80
2020,05,11,14,12,19.90
2020,05,11,14,13,19.90
2020,05,11,14,14,19.90
2020,05,11,14,15,19.80
2020,05,11,14,16,19.80
2020,05,11,14,17,19.80
2020,05,11,14,18,19.80
2020,05,11,14,19,19.70
2020,05,11,14,20,19.70
2020,05,11,14,21,19.70
2020,05,11,14,22,19.60
2020,05,11,14,23,19.60
2020,05,11,14,24,19.60
2020,05,11,14,25,19.60
2020,05,11,14,26,19.70
2020,05,11,14,27,19.70
2020,05,11,14,28,19.70
2020,05,11,14,29,19.70
2020,05,11,14,30,19.80
2020,05,11,14,31,19.80
2020,05,11,14,32,19.90
2020,05,11,14,33,19.90
2020,05,11,14,34,20.00
2020,05,11,14,35,20.00
2020,05,11,14,36,20.10
2020,05,11,14,37,20.10
2020,05,11,14,38,20.20
2020,05,11,14,39,20.20
2020,05,11,14,40,20.20
2020,05,11,14,41,20.20
2020,05,11,14,42,20.20
2020,05,11,14,43,20.20
2020,05,11,14,44,20.20
2020,05,11,14,45,20.10
2020,05,11,14,46,20.10
2020,05,11,14,47,20.00
2020,05,11,14,48,19.90
2020,05,11,14,49,19.90
2020,05,11,14,50,19.80
2020,05,11,14,51,19.70
2020,05,11,14,52,19.60
2020,05,11,14,53,19.50
2020,05,11,14,54,19.40
2020,05,11,14,55,19.40
2020,05,11,14,56,19.30
2020,05,11,14,57,19.30
2020,05,11,14,58,19.30
2020,05,11,14,59,19.30
2020,05,11,15,00,19.30
2020,05,11,15,01,19.30
2020,05,11,15,02,19.30
2020,05,11,15,03,19.30
2020,05,11,15,04,19.30
2020,05,11,15,05,19.30
2020,05,11,15,06,19.30
2020,05,11,15,07,19.30
2020,05,11,15,08,19.20
2020,05,11,15,09,19.20
2020,05,11,15,10,19.20
2020,05,11,15,11,19.20
2020,05,11,15,12,19.20
2020,05,11,15,13,19.20
2020,05,11,15,14,19.10
2020,05,11,15,15,19.10
2020,05,11,15,16,19.10
2020,05,11,15,17,19.00
2020,05,11,15,18,19.00
2020,05,11,15,19,18.90
2020,05,11,15,20,18.80
2020,05,11,15,21,18.70
2020,05,11,15,22,18.70
2020,05,11,15,23,18.60
2020,05,11,15,24,18.60
2020,05,11,15,25,18.60
2020,05,11,15,26,18.60
2020,05,11,15,27,18.60
2020,05,11,15,28,18.60
2020,05,11,15,29,18.60
2020,05,11,15,30,18.60
2020,05,11,15,31,18.60
2020,05,11,15,32,18.60
2020,05,11,15,33,18.50
2020,05,11,15,34,18.50
2020,05,11,15,35,18.50
2020,05,11,15,36,18.40
2020,05,11,15,37,18.40
2020,05,11,15,38,18.40
2020,05,11,15,39,18.40
2020,05,11,15,40,18.40
2020,05,11,15,41,18.40
2020,05,11,15,42,18.40
2020,05,11,15,43,18.40
2020,05,11,15,44,18.40
2020,05,11,15,45,18.30
2020,05,11,15,46,18.20
2020,05,11,15,47,18.20
2020,05,11,15,48,18.10
2020,05,11,15,49,18.00
2020,05,11,15,50,18.00
2020,05,11,15,51,17.90
2020,05,11,15,52,17.80
2020,05,11,15,53,17.70
2020,05,11,15,54,17.60
2020,05,11,15,55,17.50
2020,05,11,15,56,17.50
2020,05,11,15,57,17.40
2020,05,11,15,58,17.40
2020,05,11,15,59,17.30
2020,05,11,16,00,17.30
2020,05,11,16,01,17.30
2020,05,11,16,02,17.30
2020,05,11,16,03,17.30
2020,05,11,16,04,17.30
2020,05,11,16,05,17.30
2020,05,11,16,06,17.30
2020,05,11,16,07,17.30
2020,05,11,16,08,17.30
2020,05,11,16,09,17.30
2020,05,11,16,10,17.30
2020,05,11,16,11,17.40
2020,05,11,16,12,17.40
2020,05,11,16,13,17.40
2020,05,11,16,14,17.50
2020,05,11,16,15,17.50
2020,05,11,16,16,17.60
2020,05,11,16,17,17.60
2020,05,11,16,18,17.60
2020,05,11,16,19,17.60
2020,05,11,16,20,17.60
2020,05,11,16,21,17.70
2020,05,11,16,22,17.70
2020,05,11,16,23,17.70
2020,05,11,16,24,17.80
2020,05,11,16,25,17.80
2020,05,11,16,26,17.90
2020,05,11,16,27,17.90
2020,05,11,16,28,18.00
2020,05,11,16,29,18.10
2020,05,11,16,30,18.10
2020,05,11,16,31,18.20
2020,05,11,16,32,18.30
2020,05,11,16,33,18.30
2020,05,11,16,34,18.40
2020,05,11,16,35,18.40
2020,05,11,16,36,18.50
2020,05,11,16,37,18.60
2020,05,11,16,38,18.60
2020,05,11,16,39,18.70
2020,05,11,16,40,18.70
2020,05,11,16,41,18.70
2020,05,11,16,42,18.70
2020,05,11,16,43,18.70
2020,05,11,16,44,18.80
2020,05,11,16,45,18.80
2020,05,11,16,46,18.80
2020,05,11,16,47,18.70
2020,05,11,16,48,18.60
2020,05,11,16,49,18.50
2020,05,11,16,50,18.40
2020,05,11,16,51,18.40
2020,05,11,16,52,18.30
2020,05,11,16,53,18.30
2020,05,11,16,54,18.20
2020,05,11,16,55,18.20
2020,05,11,16,56,18.10
2020,05,11,16,57,18.10
2020,05,11,16,58,18.00
2020,05,11,16,59,18.00
2020,05,11,17,00,17.90
2020,05,11,17,01,17.90
2020,05,11,17,02,17.90
2020,05,11,17,03,17.90
2020,05,11,17,04,17.90
2020,05,11,17,05,17.90
2020,05,11,17,06,17.90
2020,05,11,17,07,17.80
2020,05,11,17,08,17.80
2020,05,11,17,09,17.80
2020,05,11,17,10,17.80
2020,05,11,17,11,17.80
2020,05,11,17,12,17.80
2020,05,11,17,13,17.80
2020,05,11,17,14,17.80
2020,05,11,17,15,17.80
2020,05,11,17,16,17.80
2020,05,11,17,17,17.80
2020,05,11,17,18,17.80
2020,05,11,17,19,17.80